Hourly Weather Bolshie Polyany

Today, 23 June, Wednesday

Time Temperature Precipitation Wind Pressure Humidity
00:00 +21°C° 0 mm 2 mps 747 mmHg 90%
01:00 +21°C° 0 mm 1 mps 747 mmHg 91%
02:00 +21°C° 0 mm 1 mps 747 mmHg 91%
03:00 +21°C° 0 mm 1 mps 748 mmHg 88%
04:00 +22°C° 0 mm 1 mps 748 mmHg 86%
05:00 +23°C° 0 mm 1 mps 748 mmHg 83%
06:00 +25°C° 0 mm 1 mps 748 mmHg 75%
07:00 +27°C° 0 mm 1 mps 748 mmHg 66%
08:00 +29°C° 0 mm 1 mps 748 mmHg 59%
09:00 +30°C° 0 mm 2 mps 748 mmHg 52%
10:00 +31°C° 0 mm 2 mps 748 mmHg 46%
11:00 +34°C° 0 mm 2 mps 748 mmHg 40%
12:00 +34°C° 0 mm 2 mps 748 mmHg 38%
13:00 +35°C° 0 mm 3 mps 748 mmHg 36%
14:00 +35°C° 0 mm 3 mps 748 mmHg 34%
15:00 +34°C° 0 mm 2 mps 748 mmHg 39%
16:00 +34°C° 0 mm 2 mps 748 mmHg 44%
17:00 +32°C° 0 mm 2 mps 748 mmHg 48%
18:00 +30°C° 0 mm 2 mps 748 mmHg 56%
19:00 +27°C° 0 mm 2 mps 748 mmHg 64%
20:00 +25°C° 0 mm 2 mps 747 mmHg 72%
21:00 +24°C° 0 mm 1 mps 748 mmHg 75%
22:00 +23°C° 0 mm 1 mps 748 mmHg 78%
23:00 +22°C° 0 mm 1 mps 748 mmHg 82%

Tomorrow, 24 June, Thursday

Time Temperature Precipitation Wind Pressure Humidity
00:00 +22°C° 0 mm 1 mps 748 mmHg 84%
01:00 +21°C° 0 mm 1 mps 748 mmHg 87%
02:00 +19°C° 0 mm 0 mps 748 mmHg 89%
03:00 +22°C° 0 mm 1 mps 748 mmHg 87%
04:00 +22°C° 0 mm 1 mps 748 mmHg 86%
05:00 +23°C° 0 mm 1 mps 748 mmHg 84%
06:00 +25°C° 0 mm 1 mps 748 mmHg 76%
07:00 +27°C° 0 mm 1 mps 748 mmHg 68%
08:00 +29°C° 0 mm 1 mps 748 mmHg 61%
09:00 +30°C° 0 mm 1 mps 748 mmHg 55%
10:00 +31°C° 0 mm 1 mps 748 mmHg 49%
11:00 +33°C° 0 mm 1 mps 748 mmHg 43%
12:00 +33°C° 0 mm 1 mps 747 mmHg 41%
13:00 +34°C° 0 mm 1 mps 747 mmHg 39%
14:00 +34°C° 0 mm 1 mps 747 mmHg 38%
15:00 +35°C° 0 mm 2 mps 746 mmHg 43%
16:00 +34°C° 0 mm 2 mps 746 mmHg 47%
17:00 +32°C° 0 mm 2 mps 746 mmHg 52%
18:00 +30°C° 1.3 mm 3 mps 746 mmHg 63%
19:00 +27°C° 1.3 mm 4 mps 746 mmHg 74%
20:00 +25°C° 1.3 mm 4 mps 746 mmHg 84%
21:00 +23°C° 0.6 mm 4 mps 746 mmHg 83%
22:00 +22°C° 0.6 mm 3 mps 746 mmHg 81%
23:00 +20°C° 0.6 mm 2 mps 745 mmHg 80%

Day after tomorrow, 25 June, Friday

Time Temperature Precipitation Wind Pressure Humidity
00:00 +20°C° 0 mm 2 mps 745 mmHg 84%
01:00 +21°C° 0 mm 1 mps 745 mmHg 88%
02:00 +21°C° 0 mm 1 mps 745 mmHg 92%
03:00 +22°C° 0.3 mm 1 mps 745 mmHg 92%
04:00 +22°C° 0.3 mm 1 mps 745 mmHg 93%
05:00 +23°C° 0.3 mm 1 mps 745 mmHg 93%
06:00 +25°C° 0 mm 1 mps 745 mmHg 87%
07:00 +26°C° 0 mm 1 mps 745 mmHg 80%
08:00 +28°C° 0 mm 2 mps 745 mmHg 74%
09:00 +30°C° 0 mm 2 mps 745 mmHg 66%
10:00 +31°C° 0 mm 2 mps 745 mmHg 58%
11:00 +34°C° 0 mm 2 mps 745 mmHg 49%
12:00 +34°C° 0 mm 2 mps 745 mmHg 46%
13:00 +35°C° 0 mm 2 mps 745 mmHg 43%
14:00 +36°C° 0 mm 2 mps 744 mmHg 40%
15:00 +35°C° 0.1 mm 2 mps 744 mmHg 46%
16:00 +34°C° 0.1 mm 2 mps 743 mmHg 51%
17:00 +32°C° 0.1 mm 2 mps 743 mmHg 57%
18:00 +28°C° 2.3 mm 2 mps 743 mmHg 69%
19:00 +25°C° 2.3 mm 2 mps 743 mmHg 82%
20:00 +20°C° 2.3 mm 2 mps 743 mmHg 95%
21:00 +20°C° 1.3 mm 2 mps 743 mmHg 94%
22:00 +21°C° 1.3 mm 1 mps 743 mmHg 94%
23:00 +21°C° 1.3 mm 1 mps 743 mmHg 93%

26 June, Saturday

Time Temperature Precipitation Wind Pressure Humidity
00:00 +20°C° 0 mm 1 mps 743 mmHg 93%
01:00 +20°C° 0 mm 1 mps 743 mmHg 93%
02:00 +20°C° 0 mm 1 mps 743 mmHg 92%
03:00 +20°C° 0 mm 1 mps 743 mmHg 92%
04:00 +20°C° 0 mm 1 mps 743 mmHg 91%
05:00 +20°C° 0 mm 1 mps 743 mmHg 90%
06:00 +22°C° 0 mm 1 mps 743 mmHg 81%
07:00 +24°C° 0 mm 1 mps 743 mmHg 73%
08:00 +26°C° 0 mm 1 mps 743 mmHg 64%
09:00 +28°C° 0 mm 1 mps 743 mmHg 59%
10:00 +30°C° 0 mm 1 mps 743 mmHg 55%
11:00 +32°C° 0 mm 1 mps 743 mmHg 50%
12:00 +32°C° 0 mm 1 mps 743 mmHg 48%
13:00 +33°C° 0 mm 1 mps 742 mmHg 46%
14:00 +33°C° 0 mm 1 mps 742 mmHg 43%
15:00 +32°C° 0.3 mm 2 mps 742 mmHg 50%
16:00 +31°C° 0.3 mm 3 mps 742 mmHg 56%
17:00 +29°C° 0.3 mm 3 mps 742 mmHg 63%
18:00 +26°C° 0.8 mm 3 mps 742 mmHg 73%
19:00 +24°C° 0.8 mm 2 mps 742 mmHg 83%
20:00 +21°C° 0.8 mm 1 mps 742 mmHg 94%
21:00 +20°C° 0 mm 1 mps 742 mmHg 94%
22:00 +20°C° 0 mm 1 mps 742 mmHg 95%
23:00 +19°C° 0 mm 1 mps 742 mmHg 95%

27 June, Sunday

Time Temperature Precipitation Wind Pressure Humidity
00:00 +19°C° 0 mm 1 mps 742 mmHg 95%
01:00 +19°C° 0 mm 1 mps 742 mmHg 95%
02:00 +19°C° 0 mm 1 mps 742 mmHg 95%
03:00 +19°C° 0 mm 1 mps 742 mmHg 95%
04:00 +20°C° 0 mm 1 mps 742 mmHg 94%
05:00 +20°C° 0 mm 1 mps 742 mmHg 94%
06:00 +22°C° 0 mm 1 mps 742 mmHg 85%
07:00 +24°C° 0 mm 1 mps 742 mmHg 77%
08:00 +26°C° 0 mm 1 mps 742 mmHg 68%
09:00 +27°C° 0 mm 1 mps 742 mmHg 62%
10:00 +29°C° 0 mm 1 mps 742 mmHg 56%
11:00 +30°C° 0 mm 2 mps 742 mmHg 50%
12:00 +31°C° 0 mm 2 mps 742 mmHg 49%
13:00 +31°C° 0 mm 2 mps 742 mmHg 48%
14:00 +32°C° 0 mm 2 mps 742 mmHg 46%
15:00 +31°C° 0.2 mm 2 mps 741 mmHg 54%
16:00 +29°C° 0.2 mm 3 mps 741 mmHg 62%
17:00 +28°C° 0.2 mm 3 mps 741 mmHg 70%
18:00 +26°C° 0.7 mm 3 mps 741 mmHg 78%
19:00 +25°C° 0.7 mm 2 mps 741 mmHg 86%
20:00 +23°C° 0.7 mm 2 mps 741 mmHg 94%
21:00 +22°C° 0.3 mm 1 mps 741 mmHg 94%
22:00 +21°C° 0.3 mm 1 mps 741 mmHg 95%
23:00 +21°C° 0.3 mm 1 mps 741 mmHg 96%

28 June, Monday

Time Temperature Precipitation Wind Pressure Humidity
00:00 +20°C° 0 mm 1 mps 741 mmHg 96%
01:00 +20°C° 0 mm 1 mps 741 mmHg 96%
02:00 +20°C° 0 mm 1 mps 741 mmHg 97%
03:00 +20°C° 0 mm 1 mps 741 mmHg 96%
04:00 +20°C° 0 mm 1 mps 741 mmHg 96%
05:00 +21°C° 0 mm 1 mps 741 mmHg 96%
06:00 +22°C° 0 mm 1 mps 741 mmHg 88%
07:00 +24°C° 0 mm 1 mps 741 mmHg 81%
08:00 +25°C° 0 mm 1 mps 741 mmHg 74%
09:00 +26°C° 0 mm 1 mps 741 mmHg 70%
10:00 +27°C° 0 mm 1 mps 741 mmHg 67%
11:00 +28°C° 0 mm 1 mps 741 mmHg 63%
12:00 +27°C° 0.5 mm 1 mps 741 mmHg 70%
13:00 +26°C° 0.5 mm 1 mps 741 mmHg 78%
14:00 +25°C° 0.5 mm 1 mps 741 mmHg 85%
15:00 +25°C° 0.8 mm 2 mps 741 mmHg 87%
16:00 +24°C° 0.8 mm 2 mps 741 mmHg 88%
17:00 +24°C° 0.8 mm 2 mps 740 mmHg 90%
18:00 +23°C° 0.4 mm 2 mps 740 mmHg 92%
19:00 +21°C° 0.4 mm 2 mps 740 mmHg 94%
20:00 +20°C° 0.4 mm 2 mps 740 mmHg 96%
21:00 +20°C° 0.3 mm 2 mps 740 mmHg 96%
22:00 +20°C° 0.3 mm 2 mps 740 mmHg 96%
23:00 +19°C° 0.3 mm 2 mps 740 mmHg 97%
Show more